TimeCDT,TemperatureF,Dew PointF,Humidity,Sea Level PressureIn,VisibilityMPH,Wind Direction,Wind SpeedMPH,Gust SpeedMPH,PrecipitationIn,Events,Conditions,WindDirDegrees,DateUTC
12:15 AM,27.0,9.5,48,29.97,5.0,North,27.6,36.8,N/A,,Haze,10,2013-04-10 05:15:00
12:35 AM,26.8,9.5,48,29.97,7.0,North,36.8,42.6,N/A,,Overcast,360,2013-04-10 05:35:00
12:55 AM,26.4,9.5,49,29.93,7.0,North,35.7,43.7,N/A,,Overcast,360,2013-04-10 05:55:00
1:15 AM,25.7,9.3,50,29.96,10.0,North,33.4,43.7,N/A,,Overcast,360,2013-04-10 06:15:00
1:35 AM,25.7,8.8,49,29.97,10.0,North,39.1,44.9,N/A,,Overcast,10,2013-04-10 06:35:00
1:55 AM,25.3,8.6,49,29.98,10.0,North,32.2,41.4,N/A,,Overcast,10,2013-04-10 06:55:00
2:15 AM,24.8,8.1,49,29.98,10.0,North,34.5,41.4,N/A,,Overcast,10,2013-04-10 07:15:00
2:35 AM,24.8,7.7,48,29.99,10.0,North,31.1,41.4,N/A,,Overcast,10,2013-04-10 07:35:00
2:55 AM,24.8,7.5,48,30.00,10.0,North,24.2,35.7,N/A,Thunderstorm,Overcast,10,2013-04-10 07:55:00
3:15 AM,24.3,6.8,47,30.02,10.0,North,28.8,35.7,N/A,,Overcast,10,2013-04-10 08:15:00
3:35 AM,23.9,6.3,47,30.02,10.0,North,26.5,34.5,N/A,,Overcast,10,2013-04-10 08:35:00
3:55 AM,23.9,5.9,46,30.03,10.0,North,28.8,33.4,N/A,,Overcast,10,2013-04-10 08:55:00
4:15 AM,23.0,5.7,48,30.05,10.0,North,24.2,38.0,N/A,,Overcast,10,2013-04-10 09:15:00
4:35 AM,23.0,5.9,48,30.01,10.0,North,29.9,38.0,N/A,,Overcast,10,2013-04-10 09:35:00
4:55 AM,22.8,5.7,48,30.02,10.0,North,28.8,35.7,N/A,,Overcast,10,2013-04-10 09:55:00
5:15 AM,22.8,5.9,48,30.00,10.0,North,27.6,34.5,N/A,,Overcast,10,2013-04-10 10:15:00
5:35 AM,22.1,5.2,48,29.99,10.0,North,31.1,38.0,N/A,,Mostly Cloudy,360,2013-04-10 10:35:00
5:55 AM,21.9,5.2,49,30.00,10.0,North,20.7,33.4,N/A,,Mostly Cloudy,10,2013-04-10 10:55:00
6:15 AM,21.7,5.0,49,30.04,10.0,North,27.6,34.5,N/A,,Scattered Clouds,10,2013-04-10 11:15:00
6:35 AM,21.6,5.2,49,30.03,10.0,North,23.0,29.9,N/A,,Mostly Cloudy,10,2013-04-10 11:35:00
6:55 AM,21.4,5.0,49,30.06,10.0,North,19.6,24.2,N/A,,Mostly Cloudy,10,2013-04-10 11:55:00
7:15 AM,21.4,5.2,50,30.07,10.0,North,17.3,26.5,N/A,,Mostly Cloudy,360,2013-04-10 12:15:00
7:35 AM,21.2,5.0,50,30.07,10.0,North,20.7,26.5,N/A,,Overcast,10,2013-04-10 12:35:00
7:55 AM,21.2,5.0,50,30.06,10.0,North,21.9,-,N/A,,Overcast,10,2013-04-10 12:55:00
8:15 AM,21.7,5.5,50,30.06,10.0,North,21.9,27.6,N/A,,Overcast,10,2013-04-10 13:15:00
8:35 AM,22.1,5.4,49,30.08,10.0,NNE,20.7,28.8,N/A,,Overcast,20,2013-04-10 13:35:00
8:55 AM,22.5,5.4,48,30.10,10.0,North,21.9,26.5,N/A,,Overcast,10,2013-04-10 13:55:00
9:15 AM,23.5,5.5,46,30.07,10.0,North,24.2,28.8,N/A,,Overcast,360,2013-04-10 14:15:00
9:35 AM,24.6,5.5,44,30.07,10.0,North,26.5,33.4,N/A,,Overcast,360,2013-04-10 14:35:00
9:55 AM,27.1,5.5,40,30.07,10.0,North,26.5,32.2,N/A,,Mostly Cloudy,360,2013-04-10 14:55:00
10:15 AM,27.3,5.7,40,30.08,10.0,North,21.9,28.8,N/A,,Mostly Cloudy,350,2013-04-10 15:15:00
10:35 AM,29.3,5.7,37,30.06,10.0,North,26.5,32.2,N/A,,Mostly Cloudy,360,2013-04-10 15:35:00
10:55 AM,30.7,5.5,35,30.08,10.0,North,25.3,33.4,N/A,,Clear,350,2013-04-10 15:55:00
11:15 AM,31.1,5.0,33,30.09,10.0,North,21.9,29.9,N/A,,Mostly Cloudy,360,2013-04-10 16:15:00
11:35 AM,31.8,5.0,32,30.09,10.0,North,21.9,31.1,N/A,,Mostly Cloudy,10,2013-04-10 16:35:00
12:15 PM,34.3,5.7,30,30.07,10.0,North,24.2,29.9,N/A,,Scattered Clouds,360,2013-04-10 17:15:00
12:35 PM,34.9,5.4,29,30.06,10.0,North,24.2,31.1,N/A,,Scattered Clouds,10,2013-04-10 17:35:00
12:55 PM,35.6,5.7,29,30.05,10.0,North,21.9,31.1,N/A,,Scattered Clouds,360,2013-04-10 17:55:00
1:15 PM,37.6,6.4,27,30.04,10.0,North,18.4,29.9,N/A,,Scattered Clouds,360,2013-04-10 18:15:00
1:35 PM,38.3,6.3,26,30.03,10.0,North,19.6,-,N/A,,Clear,10,2013-04-10 18:35:00
1:55 PM,39.7,6.6,25,30.02,10.0,North,19.6,27.6,N/A,,Clear,10,2013-04-10 18:55:00
2:15 PM,40.6,7.0,25,30.02,10.0,North,18.4,27.6,N/A,,Clear,10,2013-04-10 19:15:00
2:35 PM,41.9,6.8,24,30.01,10.0,North,18.4,25.3,N/A,,Clear,10,2013-04-10 19:35:00
2:55 PM,43.0,8.4,24,30.00,10.0,North,18.4,24.2,N/A,,Clear,10,2013-04-10 19:55:00
3:15 PM,43.5,9.5,25,29.99,10.0,North,13.8,23.0,N/A,,Clear,360,2013-04-10 20:15:00
3:35 PM,44.6,10.6,25,29.98,10.0,North,12.7,23.0,N/A,,Clear,350,2013-04-10 20:35:00
3:55 PM,43.9,10.8,26,29.97,10.0,North,10.4,20.7,N/A,,Clear,360,2013-04-10 20:55:00
4:15 PM,45.0,11.5,26,29.96,10.0,NNW,13.8,20.7,N/A,,Clear,340,2013-04-10 21:15:00
4:35 PM,44.8,11.7,26,29.95,10.0,North,15.0,23.0,N/A,,Clear,10,2013-04-10 21:35:00
4:55 PM,45.1,11.8,26,29.95,10.0,North,17.3,23.0,N/A,,Clear,360,2013-04-10 21:55:00
5:15 PM,44.8,13.6,28,29.95,10.0,North,11.5,21.9,N/A,,Clear,10,2013-04-10 22:15:00
5:35 PM,44.4,14.7,30,29.96,10.0,North,13.8,20.7,N/A,,Clear,350,2013-04-10 22:35:00
5:55 PM,44.2,14.9,31,29.95,10.0,North,13.8,19.6,N/A,,Clear,350,2013-04-10 22:55:00
6:15 PM,44.1,15.1,31,29.95,10.0,NNW,15.0,19.6,N/A,,Clear,330,2013-04-10 23:15:00
6:35 PM,44.1,14.7,31,29.95,10.0,North,13.8,18.4,N/A,,Clear,350,2013-04-10 23:35:00
6:55 PM,43.7,14.0,30,29.95,10.0,North,11.5,16.1,N/A,,Clear,350,2013-04-10 23:55:00
7:15 PM,42.8,13.8,31,29.95,10.0,North,8.1,-,N/A,,Clear,350,2013-04-11 00:15:00
7:35 PM,41.7,12.9,31,29.96,10.0,NNW,8.1,-,N/A,,Clear,340,2013-04-11 00:35:00
7:55 PM,41.9,12.7,31,29.96,10.0,North,6.9,-,N/A,,Clear,360,2013-04-11 00:55:00
8:15 PM,39.9,12.0,32,29.98,10.0,North,4.6,-,N/A,,Clear,360,2013-04-11 01:15:00
8:35 PM,37.9,11.7,34,29.98,10.0,NNE,4.6,-,N/A,,Clear,30,2013-04-11 01:35:00
8:55 PM,37.6,12.0,35,29.99,10.0,NE,3.5,-,N/A,,Clear,40,2013-04-11 01:55:00
9:15 PM,35.8,11.3,36,29.99,10.0,NNE,3.5,-,N/A,,Clear,20,2013-04-11 02:15:00
9:35 PM,34.3,10.8,38,30.00,10.0,NNE,4.6,-,N/A,,Clear,20,2013-04-11 02:35:00
9:55 PM,34.2,10.6,38,30.00,10.0,NNE,5.8,-,N/A,,Clear,20,2013-04-11 02:55:00
10:15 PM,32.2,9.9,39,30.00,10.0,NNE,6.9,-,N/A,,Clear,20,2013-04-11 03:15:00
10:35 PM,31.6,10.6,42,30.00,10.0,NE,8.1,-,N/A,,Clear,40,2013-04-11 03:35:00
10:55 PM,31.1,9.5,41,30.01,10.0,NE,6.9,-,N/A,,Clear,40,2013-04-11 03:55:00
11:15 PM,30.2,9.9,43,30.00,10.0,NE,8.1,-,N/A,,Clear,50,2013-04-11 04:15:00
11:35 PM,29.7,10.0,44,30.00,10.0,ENE,8.1,-,N/A,,Clear,60,2013-04-11 04:35:00
11:55 PM,29.3,10.4,45,30.00,10.0,NE,6.9,-,N/A,,Clear,50,2013-04-11 04:55:00